Archiv

Tageswerte

Alle gespeicherten Messwerte deiner Wetterstation.

Ausgewählter Tag20.01.2024
← Vortag Nächster Tag → Heute
Messpunkte288
Max Temperatur0,8 °C
Min Temperatur-4,6 °C
Ø Temperatur-2,7 °C
Regen0,3 mm
Stärkste Böe21,1 km/h

Messwerte vom 20.01.2024

288 gespeicherte Messwerte

Diagramm anzeigen
ZeitTemperaturFeuchteDruckWindBöeRichtungRegenUVHelligkeit
23:59-2,9 °C53 %1.021,0 hPa1,3 km/h3,2 km/h257°0,3 mm
23:54-2,8 °C52 %1.021,0 hPa3,2 km/h5,3 km/h254°0,3 mm
23:49-2,8 °C52 %1.021,0 hPa2,4 km/h5,6 km/h265°0,3 mm
23:44-2,7 °C52 %1.021,0 hPa2,2 km/h6,4 km/h226°0,3 mm
23:39-2,8 °C52 %1.021,0 hPa2,9 km/h7,9 km/h253°0,3 mm
23:34-3,0 °C52 %1.021,0 hPa3,5 km/h6,1 km/h267°0,3 mm
23:29-3,0 °C53 %1.021,0 hPa3,5 km/h7,4 km/h270°0,3 mm
23:24-3,1 °C54 %1.021,0 hPa3,8 km/h8,9 km/h248°0,3 mm
23:19-3,1 °C55 %1.021,0 hPa2,9 km/h7,4 km/h249°0,3 mm
23:14-3,3 °C55 %1.021,0 hPa3,6 km/h8,2 km/h255°0,3 mm
23:09-3,3 °C56 %1.021,0 hPa3,3 km/h8,5 km/h244°0,3 mm
23:04-3,3 °C56 %1.021,0 hPa2,7 km/h6,8 km/h248°0,3 mm
22:59-3,3 °C57 %1.021,0 hPa2,5 km/h6,8 km/h256°0,3 mm
22:54-3,4 °C57 %1.021,0 hPa3,7 km/h6,4 km/h241°0,3 mm
22:49-3,5 °C57 %1.021,0 hPa3,2 km/h6,8 km/h249°0,3 mm
22:44-3,6 °C58 %1.021,0 hPa2,9 km/h7,9 km/h246°0,3 mm
22:39-3,6 °C59 %1.021,0 hPa2,5 km/h7,4 km/h269°0,3 mm
22:34-3,6 °C59 %1.021,0 hPa2,4 km/h3,5 km/h225°0,3 mm
22:29-3,6 °C59 %1.021,0 hPa2,2 km/h5,6 km/h249°0,3 mm
22:24-3,6 °C59 %1.021,0 hPa1,9 km/h6,4 km/h224°0,3 mm
22:19-3,6 °C60 %1.021,0 hPa1,8 km/h3,9 km/h249°0,3 mm
22:14-3,5 °C60 %1.021,0 hPa1,4 km/h2,7 km/h222°0,3 mm
22:09-3,5 °C60 %1.021,0 hPa2,1 km/h4,2 km/h219°0,3 mm
22:04-3,5 °C60 %1.021,0 hPa1,1 km/h2,7 km/h236°0,3 mm
21:59-3,6 °C60 %1.022,0 hPa2,0 km/h8,2 km/h225°0,3 mm
21:54-3,6 °C61 %1.022,0 hPa1,8 km/h6,8 km/h245°0,3 mm
21:49-3,6 °C61 %1.022,0 hPa0,5 km/h3,5 km/h218°0,3 mm
21:44-3,5 °C61 %1.022,0 hPa2,1 km/h3,9 km/h217°0,3 mm
21:39-3,5 °C62 %1.022,0 hPa1,2 km/h3,5 km/h214°0,3 mm
21:34-3,3 °C62 %1.022,0 hPa2,1 km/h3,9 km/h199°0,3 mm
21:29-3,2 °C62 %1.022,0 hPa2,3 km/h7,9 km/h189°0,3 mm
21:24-3,0 °C61 %1.022,0 hPa1,8 km/h3,9 km/h212°0,3 mm
21:19-2,9 °C61 %1.022,0 hPa1,8 km/h5,6 km/h219°0,3 mm
21:14-2,8 °C61 %1.021,0 hPa2,1 km/h6,4 km/h242°0,3 mm
21:09-2,7 °C60 %1.021,0 hPa2,1 km/h8,5 km/h237°0,3 mm
21:04-2,6 °C60 %1.021,0 hPa4,8 km/h8,5 km/h234°0,3 mm
20:59-2,6 °C60 %1.021,0 hPa2,8 km/h9,3 km/h222°0,3 mm
20:54-2,5 °C60 %1.021,0 hPa3,1 km/h9,3 km/h233°0,3 mm
20:49-2,5 °C60 %1.021,0 hPa3,2 km/h8,2 km/h236°0,3 mm
20:44-2,5 °C60 %1.021,0 hPa4,6 km/h11,1 km/h242°0,3 mm
20:39-2,5 °C61 %1.021,0 hPa4,2 km/h9,7 km/h225°0,3 mm
20:34-2,5 °C62 %1.021,0 hPa4,5 km/h8,5 km/h244°0,3 mm
20:29-2,4 °C62 %1.021,0 hPa4,0 km/h8,5 km/h253°0,3 mm
20:24-2,4 °C62 %1.021,0 hPa6,1 km/h11,1 km/h251°0,3 mm
20:19-2,5 °C62 %1.021,0 hPa4,1 km/h10,8 km/h219°0,3 mm
20:14-2,5 °C62 %1.021,0 hPa5,1 km/h9,7 km/h235°0,3 mm
20:09-2,5 °C63 %1.021,0 hPa3,6 km/h11,1 km/h241°0,3 mm
20:04-2,5 °C63 %1.021,0 hPa3,9 km/h9,7 km/h247°0,3 mm
19:59-2,5 °C64 %1.021,0 hPa3,8 km/h8,5 km/h277°0,3 mm
19:54-2,5 °C64 %1.021,0 hPa5,6 km/h9,7 km/h237°0,3 mm
19:49-2,5 °C64 %1.021,0 hPa5,0 km/h10,0 km/h256°0,3 mm
19:44-2,5 °C64 %1.021,0 hPa5,4 km/h11,4 km/h237°0,3 mm
19:39-2,5 °C65 %1.021,0 hPa4,7 km/h10,8 km/h227°0,3 mm
19:34-2,5 °C65 %1.021,0 hPa4,4 km/h8,9 km/h256°0,3 mm
19:29-2,4 °C65 %1.021,0 hPa3,8 km/h11,4 km/h255°0,3 mm
19:24-2,4 °C65 %1.021,0 hPa3,4 km/h8,5 km/h244°0,3 mm
19:19-2,3 °C65 %1.021,0 hPa3,2 km/h9,7 km/h239°0,3 mm
19:14-2,3 °C65 %1.021,0 hPa3,9 km/h8,9 km/h251°0,3 mm
19:09-2,3 °C65 %1.021,0 hPa5,1 km/h10,8 km/h259°0,3 mm
19:04-2,3 °C65 %1.021,0 hPa4,7 km/h10,8 km/h222°0,3 mm
18:59-2,4 °C65 %1.021,0 hPa6,4 km/h10,8 km/h236°0,3 mm
18:54-2,4 °C66 %1.021,0 hPa6,2 km/h10,8 km/h228°0,3 mm
18:49-2,4 °C67 %1.021,0 hPa5,4 km/h11,4 km/h242°0,3 mm
18:44-2,4 °C67 %1.021,0 hPa4,3 km/h12,2 km/h235°0,3 mm
18:39-2,4 °C67 %1.021,0 hPa3,6 km/h8,5 km/h251°0,3 mm
18:34-2,4 °C67 %1.021,0 hPa4,8 km/h11,7 km/h246°0,3 mm
18:29-2,3 °C68 %1.021,0 hPa3,2 km/h6,8 km/h246°0,3 mm
18:24-2,2 °C68 %1.021,0 hPa4,6 km/h9,3 km/h235°0,3 mm
18:19-2,2 °C68 %1.021,0 hPa5,9 km/h10,8 km/h237°0,3 mm
18:14-2,2 °C68 %1.021,0 hPa5,7 km/h11,4 km/h247°0,3 mm
18:09-2,2 °C69 %1.021,0 hPa5,2 km/h10,3 km/h247°0,3 mm
18:04-2,2 °C69 %1.021,0 hPa3,4 km/h8,9 km/h250°0,3 mm
17:59-2,2 °C69 %1.021,0 hPa4,3 km/h8,5 km/h250°0,3 mm
17:54-2,1 °C69 %1.021,0 hPa4,8 km/h8,5 km/h232°0,3 mm
17:49-2,1 °C70 %1.021,0 hPa3,9 km/h9,3 km/h241°0,3 mm
17:44-2,0 °C70 %1.020,0 hPa3,7 km/h8,5 km/h237°0,3 mm
17:39-2,0 °C69 %1.020,0 hPa5,6 km/h10,8 km/h243°0,3 mm
17:34-2,0 °C70 %1.020,0 hPa4,8 km/h9,3 km/h240°0,3 mm
17:29-2,0 °C70 %1.020,0 hPa4,1 km/h8,2 km/h255°0,3 mm
17:24-1,9 °C70 %1.020,0 hPa4,5 km/h10,3 km/h248°0,3 mm
17:19-1,8 °C70 %1.020,0 hPa4,6 km/h10,3 km/h231°0,3 mm
17:14-1,7 °C70 %1.020,0 hPa2,3 km/h11,4 km/h251°0,3 mm
17:09-1,7 °C69 %1.020,0 hPa3,3 km/h9,7 km/h239°0,3 mm
17:04-1,6 °C70 %1.020,0 hPa2,0 km/h7,9 km/h256°0,3 mm
16:59-1,5 °C70 %1.020,0 hPa2,3 km/h7,1 km/h286°0,3 mm
16:54-1,5 °C69 %1.020,0 hPa3,0 km/h6,8 km/h296°0,3 mm
16:49-1,4 °C70 %1.020,0 hPa2,2 km/h5,3 km/h287°0,3 mm
16:44-1,4 °C69 %1.020,0 hPa3,6 km/h8,9 km/h280°0,3 mm
16:39-1,3 °C70 %1.020,0 hPa3,3 km/h10,3 km/h294°0,3 mm
16:34-1,2 °C69 %1.020,0 hPa3,8 km/h10,8 km/h222°0,3 mm
16:29-1,0 °C69 %1.020,0 hPa3,3 km/h9,3 km/h291°0,3 mm
16:24-1,0 °C69 %1.020,0 hPa3,8 km/h9,3 km/h285°0,3 mm
16:19-0,9 °C69 %1.020,0 hPa3,7 km/h8,5 km/h273°0,3 mm
16:14-0,8 °C69 %1.019,0 hPa4,5 km/h9,3 km/h229°0,3 mm
16:09-0,7 °C69 %1.019,0 hPa4,2 km/h8,5 km/h267°0,3 mm
16:04-0,4 °C69 %1.019,0 hPa4,1 km/h11,4 km/h272°0,3 mm
15:59-0,1 °C68 %1.019,0 hPa5,6 km/h11,4 km/h280°0,3 mm
15:540,0 °C68 %1.019,0 hPa5,2 km/h8,9 km/h273°0,3 mm
15:490,2 °C67 %1.019,0 hPa5,1 km/h11,1 km/h265°0,3 mm
15:440,2 °C67 %1.019,0 hPa3,4 km/h12,6 km/h300°0,3 mm
15:390,2 °C67 %1.019,0 hPa4,9 km/h9,7 km/h246°0,3 mm
15:340,1 °C68 %1.019,0 hPa3,5 km/h9,3 km/h296°0,3 mm
15:290,1 °C68 %1.019,0 hPa4,3 km/h9,7 km/h275°0,3 mm
15:240,3 °C68 %1.019,0 hPa4,6 km/h8,9 km/h270°0,3 mm
15:190,5 °C68 %1.019,0 hPa6,5 km/h11,4 km/h275°0,3 mm
15:140,5 °C67 %1.019,0 hPa5,1 km/h10,3 km/h283°0,3 mm
15:090,6 °C67 %1.019,0 hPa5,9 km/h10,3 km/h272°0,3 mm
15:040,7 °C67 %1.019,0 hPa6,4 km/h10,8 km/h252°0,3 mm
14:590,7 °C66 %1.019,0 hPa6,3 km/h10,3 km/h253°0,3 mm
14:540,7 °C66 %1.019,0 hPa3,6 km/h10,3 km/h280°0,3 mm
14:490,7 °C66 %1.019,0 hPa5,5 km/h11,1 km/h250°0,3 mm
14:440,8 °C66 %1.018,0 hPa4,9 km/h11,1 km/h259°0,3 mm
14:390,7 °C66 %1.018,0 hPa2,7 km/h6,8 km/h275°0,3 mm
14:340,6 °C66 %1.018,0 hPa5,9 km/h9,7 km/h280°0,3 mm
14:290,5 °C66 %1.019,0 hPa4,6 km/h12,2 km/h263°0,3 mm
14:240,5 °C66 %1.019,0 hPa4,3 km/h10,8 km/h252°0,3 mm
14:190,5 °C66 %1.019,0 hPa6,1 km/h11,1 km/h264°0,3 mm
14:140,4 °C66 %1.019,0 hPa7,3 km/h19,0 km/h262°0,0 mm
14:090,5 °C66 %1.019,0 hPa6,5 km/h15,0 km/h239°0,0 mm
14:040,4 °C66 %1.019,0 hPa4,9 km/h9,7 km/h269°0,0 mm
13:590,4 °C66 %1.019,0 hPa5,9 km/h11,1 km/h292°0,0 mm
13:540,4 °C66 %1.019,0 hPa4,8 km/h9,7 km/h259°0,0 mm
13:490,4 °C66 %1.019,0 hPa5,4 km/h11,4 km/h278°0,0 mm
13:440,3 °C65 %1.019,0 hPa5,4 km/h10,8 km/h288°0,0 mm
13:390,2 °C66 %1.019,0 hPa4,4 km/h10,8 km/h273°0,0 mm
13:340,2 °C66 %1.019,0 hPa6,0 km/h11,4 km/h276°0,0 mm
13:290,2 °C66 %1.019,0 hPa7,9 km/h15,8 km/h272°0,0 mm
13:240,2 °C66 %1.019,0 hPa6,9 km/h11,4 km/h217°0,0 mm
13:190,1 °C66 %1.019,0 hPa4,6 km/h12,6 km/h251°0,0 mm
13:140,1 °C66 %1.019,0 hPa6,0 km/h14,3 km/h266°0,0 mm
13:090,0 °C66 %1.019,0 hPa6,7 km/h12,2 km/h258°0,0 mm
13:040,0 °C66 %1.019,0 hPa5,8 km/h11,4 km/h243°0,0 mm
12:590,0 °C66 %1.019,0 hPa7,4 km/h12,9 km/h259°0,0 mm
12:54-0,1 °C66 %1.019,0 hPa9,7 km/h17,2 km/h283°0,0 mm
12:49-0,1 °C67 %1.019,0 hPa6,7 km/h12,6 km/h280°0,0 mm
12:44-0,1 °C67 %1.019,0 hPa6,2 km/h9,3 km/h266°0,0 mm
12:39-0,1 °C67 %1.019,0 hPa8,0 km/h16,4 km/h260°0,0 mm
12:34-0,2 °C67 %1.019,0 hPa4,8 km/h10,3 km/h249°0,0 mm
12:29-0,2 °C67 %1.019,0 hPa8,5 km/h16,4 km/h256°0,0 mm
12:24-0,3 °C67 %1.019,0 hPa5,6 km/h12,2 km/h247°0,0 mm
12:19-0,4 °C67 %1.019,0 hPa7,4 km/h15,8 km/h246°0,0 mm
12:14-0,5 °C68 %1.019,0 hPa6,6 km/h12,6 km/h247°0,0 mm
12:09-0,5 °C67 %1.019,0 hPa5,9 km/h15,0 km/h250°0,0 mm
12:04-0,6 °C67 %1.019,0 hPa7,7 km/h15,8 km/h277°0,0 mm
11:59-0,7 °C67 %1.019,0 hPa6,1 km/h16,4 km/h259°0,0 mm
11:54-0,7 °C67 %1.019,0 hPa7,1 km/h12,9 km/h249°0,0 mm
11:49-0,8 °C68 %1.019,0 hPa5,0 km/h12,6 km/h245°0,0 mm
11:44-0,8 °C68 %1.019,0 hPa5,1 km/h9,7 km/h254°0,0 mm
11:39-0,9 °C68 %1.019,0 hPa5,2 km/h9,3 km/h250°0,0 mm
11:34-0,9 °C68 %1.019,0 hPa6,0 km/h12,2 km/h262°0,0 mm
11:29-0,9 °C68 %1.019,0 hPa6,2 km/h15,0 km/h248°0,0 mm
11:24-1,0 °C68 %1.019,0 hPa6,0 km/h12,6 km/h252°0,0 mm
11:19-1,1 °C69 %1.019,0 hPa3,1 km/h6,8 km/h277°0,0 mm
11:14-1,3 °C69 %1.019,0 hPa4,9 km/h8,9 km/h231°0,0 mm
11:09-1,5 °C70 %1.019,0 hPa4,3 km/h8,9 km/h217°0,0 mm
11:04-1,6 °C70 %1.019,0 hPa6,6 km/h10,3 km/h222°0,0 mm
10:59-1,6 °C70 %1.019,0 hPa5,7 km/h10,8 km/h221°0,0 mm
10:54-1,7 °C70 %1.019,0 hPa6,1 km/h9,3 km/h238°0,0 mm
10:49-1,7 °C70 %1.019,0 hPa6,8 km/h10,8 km/h246°0,0 mm
10:43-1,8 °C70 %1.019,0 hPa3,9 km/h9,3 km/h219°0,0 mm
10:39-1,9 °C71 %1.019,0 hPa6,0 km/h12,2 km/h236°0,0 mm
10:34-2,0 °C72 %1.019,0 hPa5,0 km/h8,5 km/h237°0,0 mm
10:29-2,1 °C71 %1.019,0 hPa6,2 km/h11,1 km/h247°0,0 mm
10:24-2,3 °C72 %1.019,0 hPa5,6 km/h14,3 km/h251°0,0 mm
10:19-2,4 °C73 %1.019,0 hPa5,0 km/h10,3 km/h274°0,0 mm
10:14-2,5 °C73 %1.019,0 hPa5,1 km/h10,8 km/h227°0,0 mm
10:09-2,6 °C74 %1.019,0 hPa5,7 km/h10,8 km/h234°0,0 mm
10:04-2,8 °C74 %1.019,0 hPa3,7 km/h9,3 km/h241°0,0 mm
09:59-2,9 °C75 %1.018,0 hPa5,1 km/h15,8 km/h257°0,0 mm
09:54-3,0 °C75 %1.018,0 hPa3,1 km/h7,9 km/h247°0,0 mm
09:49-3,1 °C75 %1.018,0 hPa7,9 km/h13,7 km/h238°0,0 mm
09:44-3,2 °C75 %1.018,0 hPa5,0 km/h13,2 km/h276°0,0 mm
09:39-3,2 °C75 %1.018,0 hPa4,3 km/h9,7 km/h226°0,0 mm
09:34-3,3 °C75 %1.018,0 hPa4,8 km/h12,9 km/h246°0,0 mm
09:29-3,4 °C76 %1.018,0 hPa4,9 km/h8,9 km/h242°0,0 mm
09:24-3,5 °C76 %1.018,0 hPa6,8 km/h12,2 km/h232°0,0 mm
09:19-3,6 °C77 %1.018,0 hPa5,6 km/h10,8 km/h239°0,0 mm
09:14-3,7 °C77 %1.018,0 hPa5,7 km/h12,6 km/h240°0,0 mm
09:09-3,8 °C78 %1.018,0 hPa7,0 km/h11,4 km/h238°0,0 mm
09:04-3,9 °C78 %1.018,0 hPa4,7 km/h12,2 km/h265°0,0 mm
08:59-4,0 °C78 %1.018,0 hPa6,3 km/h15,8 km/h227°0,0 mm
08:54-4,1 °C79 %1.018,0 hPa3,5 km/h11,1 km/h237°0,0 mm
08:49-4,1 °C79 %1.018,0 hPa5,1 km/h10,8 km/h228°0,0 mm
08:44-4,2 °C80 %1.018,0 hPa6,4 km/h15,0 km/h222°0,0 mm
08:39-4,3 °C80 %1.018,0 hPa5,5 km/h11,1 km/h242°0,0 mm
08:34-4,4 °C81 %1.018,0 hPa6,2 km/h10,8 km/h236°0,0 mm
08:29-4,4 °C81 %1.016,9 hPa3,5 km/h8,5 km/h253°0,0 mm
08:24-4,4 °C81 %1.016,9 hPa3,5 km/h9,3 km/h256°0,0 mm
08:19-4,5 °C81 %1.016,9 hPa6,1 km/h11,1 km/h241°0,0 mm
08:14-4,5 °C82 %1.016,9 hPa4,3 km/h8,5 km/h240°0,0 mm
08:09-4,4 °C82 %1.016,9 hPa4,2 km/h9,3 km/h258°0,0 mm
08:04-4,4 °C82 %1.016,9 hPa4,0 km/h8,5 km/h240°0,0 mm
07:59-4,4 °C81 %1.016,9 hPa4,2 km/h9,3 km/h247°0,0 mm
07:54-4,4 °C81 %1.016,9 hPa6,3 km/h12,6 km/h249°0,0 mm
07:49-4,4 °C82 %1.016,9 hPa4,3 km/h10,8 km/h254°0,0 mm
07:44-4,4 °C81 %1.016,9 hPa4,4 km/h10,3 km/h232°0,0 mm
07:39-4,4 °C81 %1.016,9 hPa4,6 km/h9,3 km/h235°0,0 mm
07:34-4,4 °C82 %1.016,9 hPa5,9 km/h15,0 km/h254°0,0 mm
07:29-4,4 °C82 %1.016,9 hPa5,1 km/h10,8 km/h218°0,0 mm
07:24-4,4 °C82 %1.016,9 hPa4,8 km/h9,7 km/h240°0,0 mm
07:19-4,4 °C82 %1.016,9 hPa3,4 km/h11,1 km/h261°0,0 mm
07:14-4,3 °C82 %1.016,9 hPa2,3 km/h6,8 km/h226°0,0 mm
07:09-4,2 °C82 %1.016,9 hPa4,3 km/h8,5 km/h260°0,0 mm
07:04-4,2 °C81 %1.016,9 hPa5,1 km/h11,4 km/h249°0,0 mm
06:59-4,2 °C81 %1.016,9 hPa4,5 km/h9,7 km/h257°0,0 mm
06:54-4,2 °C81 %1.016,9 hPa5,5 km/h9,3 km/h265°0,0 mm
06:49-4,2 °C81 %1.016,9 hPa6,4 km/h12,2 km/h251°0,0 mm
06:44-4,2 °C81 %1.016,9 hPa4,0 km/h11,4 km/h213°0,0 mm
06:39-4,2 °C81 %1.016,9 hPa4,7 km/h11,1 km/h259°0,0 mm
06:34-4,2 °C81 %1.016,9 hPa4,0 km/h8,9 km/h231°0,0 mm
06:29-4,1 °C81 %1.015,9 hPa4,1 km/h11,4 km/h265°0,0 mm
06:24-4,1 °C81 %1.015,9 hPa4,0 km/h9,7 km/h285°0,0 mm
06:19-4,2 °C81 %1.015,9 hPa4,8 km/h11,1 km/h240°0,0 mm
06:14-4,2 °C81 %1.015,9 hPa4,9 km/h11,1 km/h256°0,0 mm
06:09-4,1 °C81 %1.015,9 hPa3,9 km/h11,1 km/h253°0,0 mm
06:04-4,1 °C82 %1.015,9 hPa4,7 km/h11,4 km/h229°0,0 mm
05:59-4,2 °C81 %1.015,9 hPa6,5 km/h11,4 km/h232°0,0 mm
05:54-4,3 °C82 %1.015,9 hPa5,6 km/h15,0 km/h257°0,0 mm
05:49-4,3 °C82 %1.015,9 hPa6,2 km/h12,2 km/h215°0,0 mm
05:44-4,3 °C82 %1.015,9 hPa5,9 km/h12,9 km/h232°0,0 mm
05:39-4,3 °C82 %1.015,9 hPa5,7 km/h11,4 km/h221°0,0 mm
05:34-4,3 °C82 %1.015,9 hPa6,8 km/h11,4 km/h237°0,0 mm
05:29-4,4 °C83 %1.015,9 hPa6,5 km/h12,2 km/h239°0,0 mm
05:24-4,4 °C83 %1.015,9 hPa6,6 km/h12,9 km/h230°0,0 mm
05:19-4,4 °C83 %1.015,9 hPa4,8 km/h9,3 km/h260°0,0 mm
05:14-4,4 °C83 %1.015,9 hPa5,0 km/h10,3 km/h212°0,0 mm
05:09-4,4 °C83 %1.015,9 hPa5,4 km/h11,1 km/h231°0,0 mm
05:04-4,4 °C83 %1.015,9 hPa5,9 km/h12,2 km/h234°0,0 mm
04:59-4,4 °C83 %1.015,9 hPa5,6 km/h11,4 km/h208°0,0 mm
04:54-4,4 °C83 %1.015,9 hPa6,4 km/h12,6 km/h246°0,0 mm
04:49-4,4 °C83 %1.015,9 hPa6,3 km/h13,7 km/h257°0,0 mm
04:44-4,4 °C84 %1.015,9 hPa7,6 km/h17,5 km/h227°0,0 mm
04:39-4,4 °C84 %1.015,9 hPa5,7 km/h9,7 km/h211°0,0 mm
04:34-4,5 °C83 %1.015,9 hPa5,4 km/h14,3 km/h250°0,0 mm
04:29-4,5 °C84 %1.015,9 hPa6,3 km/h13,7 km/h237°0,0 mm
04:24-4,5 °C84 %1.015,9 hPa6,2 km/h9,7 km/h236°0,0 mm
04:19-4,5 °C84 %1.015,9 hPa4,5 km/h10,3 km/h213°0,0 mm
04:14-4,5 °C84 %1.015,9 hPa4,8 km/h8,5 km/h201°0,0 mm
04:09-4,5 °C84 %1.015,9 hPa4,4 km/h6,8 km/h241°0,0 mm
04:04-4,5 °C84 %1.015,9 hPa6,3 km/h12,6 km/h241°0,0 mm
03:59-4,6 °C84 %1.015,9 hPa4,5 km/h8,5 km/h236°0,0 mm
03:54-4,6 °C84 %1.015,9 hPa4,7 km/h11,1 km/h223°0,0 mm
03:49-4,6 °C84 %1.015,9 hPa3,0 km/h8,5 km/h245°0,0 mm
03:44-4,6 °C84 %1.015,9 hPa3,8 km/h8,5 km/h256°0,0 mm
03:39-4,6 °C84 %1.015,9 hPa2,9 km/h7,4 km/h216°0,0 mm
03:34-4,6 °C84 %1.015,9 hPa3,8 km/h6,4 km/h238°0,0 mm
03:29-4,5 °C84 %1.015,9 hPa2,6 km/h6,4 km/h237°0,0 mm
03:24-4,5 °C84 %1.015,9 hPa2,8 km/h8,5 km/h256°0,0 mm
03:19-4,4 °C84 %1.015,9 hPa4,3 km/h8,5 km/h261°0,0 mm
03:14-4,4 °C84 %1.015,9 hPa5,0 km/h9,3 km/h241°0,0 mm
03:09-4,4 °C84 %1.015,9 hPa3,7 km/h10,3 km/h207°0,0 mm
03:04-4,3 °C84 %1.015,9 hPa3,7 km/h8,5 km/h233°0,0 mm
02:59-4,3 °C84 %1.015,9 hPa4,4 km/h10,8 km/h221°0,0 mm
02:54-4,3 °C84 %1.015,9 hPa3,6 km/h9,3 km/h251°0,0 mm
02:49-4,3 °C84 %1.015,9 hPa4,2 km/h8,5 km/h241°0,0 mm
02:44-4,3 °C85 %1.014,9 hPa5,3 km/h10,3 km/h247°0,0 mm
02:39-4,2 °C85 %1.014,9 hPa3,2 km/h9,7 km/h229°0,0 mm
02:34-4,2 °C84 %1.014,9 hPa5,5 km/h11,4 km/h250°0,0 mm
02:29-4,1 °C84 %1.014,9 hPa3,8 km/h8,5 km/h248°0,0 mm
02:24-4,1 °C84 %1.014,9 hPa6,4 km/h12,2 km/h251°0,0 mm
02:19-4,1 °C85 %1.014,9 hPa5,4 km/h15,8 km/h251°0,0 mm
02:14-4,1 °C84 %1.014,9 hPa3,7 km/h10,8 km/h239°0,0 mm
02:09-4,1 °C84 %1.014,9 hPa5,2 km/h11,1 km/h253°0,0 mm
02:04-4,1 °C84 %1.014,9 hPa4,0 km/h8,5 km/h222°0,0 mm
01:59-4,1 °C84 %1.014,9 hPa4,8 km/h10,8 km/h251°0,0 mm
01:54-4,1 °C84 %1.014,9 hPa5,9 km/h12,6 km/h231°0,0 mm
01:49-4,1 °C84 %1.014,9 hPa5,8 km/h10,3 km/h224°0,0 mm
01:44-4,1 °C84 %1.014,9 hPa6,0 km/h11,4 km/h208°0,0 mm
01:39-4,0 °C84 %1.014,9 hPa6,1 km/h14,3 km/h244°0,0 mm
01:34-4,0 °C84 %1.014,9 hPa6,8 km/h11,4 km/h238°0,0 mm
01:29-3,9 °C84 %1.014,9 hPa5,0 km/h11,1 km/h236°0,0 mm
01:24-3,9 °C84 %1.014,9 hPa6,4 km/h12,2 km/h241°0,0 mm
01:19-3,9 °C84 %1.014,9 hPa6,6 km/h11,1 km/h222°0,0 mm
01:14-3,9 °C84 %1.013,9 hPa4,5 km/h12,2 km/h218°0,0 mm
01:09-3,8 °C84 %1.013,9 hPa7,8 km/h15,8 km/h237°0,0 mm
01:04-3,8 °C84 %1.013,9 hPa5,3 km/h10,8 km/h232°0,0 mm
00:59-3,7 °C84 %1.014,9 hPa7,0 km/h21,1 km/h243°0,0 mm
00:54-3,8 °C84 %1.014,9 hPa6,6 km/h15,8 km/h247°0,0 mm
00:49-3,8 °C84 %1.014,9 hPa6,4 km/h13,7 km/h252°0,0 mm
00:44-3,9 °C84 %1.014,9 hPa6,8 km/h13,7 km/h246°0,0 mm
00:39-4,0 °C84 %1.014,9 hPa5,3 km/h10,8 km/h249°0,0 mm
00:34-4,0 °C84 %1.014,9 hPa8,1 km/h14,3 km/h258°0,0 mm
00:29-4,1 °C85 %1.014,9 hPa5,6 km/h12,6 km/h224°0,0 mm
00:24-4,1 °C85 %1.014,9 hPa4,8 km/h12,2 km/h245°0,0 mm
00:19-4,1 °C85 %1.014,9 hPa5,7 km/h13,7 km/h226°0,0 mm
00:14-4,1 °C85 %1.014,9 hPa6,6 km/h10,8 km/h243°0,0 mm
00:09-4,1 °C85 %1.014,9 hPa5,7 km/h14,3 km/h188°0,0 mm
00:04-4,1 °C85 %1.014,9 hPa6,4 km/h12,6 km/h202°0,0 mm